Time,TemperatureF,DewpointF,PressureIn,WindDirection,WindDirectionDegrees,WindSpeedMPH,WindSpeedGustMPH,Humidity,HourlyPrecipIn,Conditions,Clouds,dailyrainin,SoftwareType,DateUTC
2013-09-19 00:01:00,58.1,48.4,30.12,ESE,112,0.0,0.0,70,0.00,,---,0.00,VWS V14.01,2013-09-19 04:01:00,
2013-09-19 00:06:00,58.1,48.4,30.12,ESE,112,0.0,0.0,70,0.00,,---,0.00,VWS V14.01,2013-09-19 04:06:00,
2013-09-19 00:08:00,57.9,48.2,30.12,SE,135,0.0,0.0,70,0.00,,---,0.00,VWS V14.01,2013-09-19 04:08:00,
2013-09-19 00:13:00,57.9,48.2,30.12,SE,135,0.0,0.0,70,0.00,,---,0.00,VWS V14.01,2013-09-19 04:13:00,
2013-09-19 00:18:00,58.1,48.0,30.12,South,180,0.0,0.0,69,0.00,,---,0.00,VWS V14.01,2013-09-19 04:18:00,
2013-09-19 00:23:00,58.1,48.0,30.12,SSW,202,0.0,0.0,69,0.00,,---,0.00,VWS V14.01,2013-09-19 04:23:00,
2013-09-19 00:28:00,58.1,48.0,30.12,East,90,0.0,2.7,69,0.00,,---,0.00,VWS V14.01,2013-09-19 04:28:00,
2013-09-19 00:33:00,58.1,48.0,30.12,SW,225,0.0,0.0,69,0.00,,---,0.00,VWS V14.01,2013-09-19 04:33:00,
2013-09-19 00:38:00,58.1,48.0,30.12,SSE,158,0.0,0.0,69,0.00,,---,0.00,VWS V14.01,2013-09-19 04:38:00,
2013-09-19 00:43:00,58.6,46.9,30.12,East,90,0.0,2.7,65,0.00,,---,0.00,VWS V14.01,2013-09-19 04:43:00,
2013-09-19 00:48:00,58.8,47.1,30.12,SW,225,2.7,2.7,65,0.00,,---,0.00,VWS V14.01,2013-09-19 04:48:00,
2013-09-19 00:53:00,58.8,47.1,30.12,SW,225,4.0,4.0,65,0.00,,---,0.00,VWS V14.01,2013-09-19 04:53:00,
2013-09-19 00:58:00,58.8,47.1,30.12,South,180,0.0,0.0,65,0.00,,---,0.00,VWS V14.01,2013-09-19 04:58:00,
2013-09-19 01:03:00,59.0,46.8,30.12,East,90,0.0,2.2,64,0.00,,---,0.00,VWS V14.01,2013-09-19 05:03:00,
2013-09-19 01:08:00,59.0,46.8,30.12,East,90,0.0,0.0,64,0.00,,---,0.00,VWS V14.01,2013-09-19 05:08:00,
2013-09-19 01:13:00,58.8,47.1,30.12,SE,135,0.0,0.0,65,0.00,,---,0.00,VWS V14.01,2013-09-19 05:13:00,
2013-09-19 01:18:00,58.8,47.5,30.12,SE,135,0.0,0.0,66,0.00,,---,0.00,VWS V14.01,2013-09-19 05:18:00,
2013-09-19 01:23:00,58.8,47.5,30.12,South,180,0.0,2.7,66,0.00,,---,0.00,VWS V14.01,2013-09-19 05:23:00,
2013-09-19 01:28:00,58.8,47.5,30.12,SE,135,0.0,4.5,66,0.00,,---,0.00,VWS V14.01,2013-09-19 05:28:00,
2013-09-19 01:33:00,58.6,47.3,30.12,East,90,2.2,2.2,66,0.00,,---,0.00,VWS V14.01,2013-09-19 05:33:00,
2013-09-19 01:38:00,58.5,47.6,30.12,SW,225,0.0,0.0,67,0.00,,---,0.00,VWS V14.01,2013-09-19 05:38:00,
2013-09-19 01:43:00,58.3,47.8,30.12,East,90,0.0,0.0,68,0.00,,---,0.00,VWS V14.01,2013-09-19 05:43:00,
2013-09-19 01:48:00,58.1,48.0,30.12,ESE,112,2.7,2.7,69,0.00,,---,0.00,VWS V14.01,2013-09-19 05:48:00,
2013-09-19 01:53:00,58.1,48.4,30.12,East,90,0.0,0.0,70,0.00,,---,0.00,VWS V14.01,2013-09-19 05:53:00,
2013-09-19 01:58:00,57.9,48.6,30.12,South,180,0.0,0.0,71,0.00,,---,0.00,VWS V14.01,2013-09-19 05:58:00,
2013-09-19 02:03:00,57.9,48.6,30.12,SW,225,0.0,0.0,71,0.00,,---,0.00,VWS V14.01,2013-09-19 06:03:00,
2013-09-19 02:08:00,57.9,48.6,30.12,SW,225,0.0,0.0,71,0.00,,---,0.00,VWS V14.01,2013-09-19 06:08:00,
2013-09-19 02:13:00,57.9,49.0,30.12,East,90,0.0,3.1,72,0.00,,---,0.00,VWS V14.01,2013-09-19 06:13:00,
2013-09-19 02:18:00,57.9,48.6,30.12,SE,135,0.0,0.0,71,0.00,,---,0.00,VWS V14.01,2013-09-19 06:18:00,
2013-09-19 02:23:00,57.9,48.6,30.12,South,180,0.0,2.7,71,0.00,,---,0.00,VWS V14.01,2013-09-19 06:23:00,
2013-09-19 02:28:00,57.7,48.4,30.12,ESE,112,0.0,2.2,71,0.00,,---,0.00,VWS V14.01,2013-09-19 06:28:00,
2013-09-19 02:33:00,57.7,48.4,30.12,SW,225,0.0,4.0,71,0.00,,---,0.00,VWS V14.01,2013-09-19 06:33:00,
2013-09-19 02:38:00,57.7,48.8,30.12,SE,135,0.0,0.0,72,0.00,,---,0.00,VWS V14.01,2013-09-19 06:38:00,
2013-09-19 02:43:00,57.7,48.4,30.12,SW,225,0.0,0.0,71,0.00,,---,0.00,VWS V14.01,2013-09-19 06:43:00,
2013-09-19 02:48:00,57.6,48.6,30.12,SW,225,2.2,2.7,72,0.00,,---,0.00,VWS V14.01,2013-09-19 06:48:00,
2013-09-19 02:53:00,57.6,48.6,30.12,SW,225,2.7,2.7,72,0.00,,---,0.00,VWS V14.01,2013-09-19 06:53:00,
2013-09-19 02:58:00,57.7,48.8,30.12,SSE,158,3.6,3.6,72,0.00,,---,0.00,VWS V14.01,2013-09-19 06:58:00,
2013-09-19 03:03:00,57.7,48.8,30.12,SW,225,0.0,0.0,72,0.00,,---,0.00,VWS V14.01,2013-09-19 07:03:00,
2013-09-19 03:08:00,57.7,48.8,30.12,SW,225,3.6,3.6,72,0.00,,---,0.00,VWS V14.01,2013-09-19 07:08:00,
2013-09-19 03:13:00,57.7,48.8,30.12,SE,135,0.0,3.6,72,0.00,,---,0.00,VWS V14.01,2013-09-19 07:13:00,
2013-09-19 03:18:00,57.7,49.2,30.12,SW,225,0.0,0.0,73,0.00,,---,0.00,VWS V14.01,2013-09-19 07:18:00,
2013-09-19 03:23:00,57.6,49.0,30.12,ESE,112,0.0,3.1,73,0.00,,---,0.00,VWS V14.01,2013-09-19 07:23:00,
2013-09-19 03:28:00,57.6,49.3,30.12,SE,135,0.0,0.0,74,0.00,,---,0.00,VWS V14.01,2013-09-19 07:28:00,
2013-09-19 03:33:00,57.4,49.9,30.12,SSE,158,2.7,2.7,76,0.00,,---,0.00,VWS V14.01,2013-09-19 07:33:00,
2013-09-19 03:38:00,57.4,50.6,30.12,ESE,112,0.0,2.7,78,0.00,,---,0.00,VWS V14.01,2013-09-19 07:38:00,
2013-09-19 03:43:00,57.2,51.1,30.12,SE,135,0.0,0.0,80,0.00,,---,0.00,VWS V14.01,2013-09-19 07:43:00,
2013-09-19 03:48:00,57.2,51.4,30.12,SE,135,0.0,0.0,81,0.00,,---,0.00,VWS V14.01,2013-09-19 07:48:00,
2013-09-19 03:53:00,57.0,51.9,30.12,SE,135,0.0,0.0,83,0.00,,---,0.00,VWS V14.01,2013-09-19 07:53:00,
2013-09-19 03:58:00,56.8,52.1,30.12,SW,225,0.0,0.0,84,0.00,,---,0.00,VWS V14.01,2013-09-19 07:58:00,
2013-09-19 04:03:00,56.7,52.2,30.12,SE,135,0.0,2.2,85,0.00,,---,0.00,VWS V14.01,2013-09-19 08:03:00,
2013-09-19 04:08:00,56.7,52.5,30.12,South,180,2.7,3.6,86,0.00,,---,0.00,VWS V14.01,2013-09-19 08:08:00,
2013-09-19 04:13:00,56.8,53.3,30.12,SW,225,2.2,2.2,88,0.00,,---,0.00,VWS V14.01,2013-09-19 08:13:00,
2013-09-19 04:18:00,56.8,53.6,30.12,ESE,112,0.0,0.0,89,0.00,,---,0.00,VWS V14.01,2013-09-19 08:18:00,
2013-09-19 04:23:00,56.7,53.5,30.12,SW,225,0.0,0.0,89,0.00,,---,0.00,VWS V14.01,2013-09-19 08:23:00,
2013-09-19 04:28:00,56.5,53.6,30.12,South,180,0.0,2.2,90,0.00,,---,0.00,VWS V14.01,2013-09-19 08:28:00,
2013-09-19 04:33:00,56.5,53.9,30.12,South,180,0.0,0.0,91,0.00,,---,0.00,VWS V14.01,2013-09-19 08:33:00,
2013-09-19 04:38:00,56.5,53.9,30.12,SSE,158,0.0,0.0,91,0.00,,---,0.00,VWS V14.01,2013-09-19 08:38:00,
2013-09-19 04:43:00,56.7,54.4,30.12,WSW,248,0.0,0.0,92,0.00,,---,0.00,VWS V14.01,2013-09-19 08:43:00,
2013-09-19 04:48:00,56.7,54.4,30.12,South,180,0.0,3.1,92,0.00,,---,0.00,VWS V14.01,2013-09-19 08:48:00,
2013-09-19 04:53:00,56.8,54.8,30.12,SE,135,0.0,5.8,93,0.00,,---,0.00,VWS V14.01,2013-09-19 08:53:00,
2013-09-19 04:58:00,56.8,54.8,30.12,SSW,202,0.0,0.0,93,0.00,,---,0.00,VWS V14.01,2013-09-19 08:58:00,
2013-09-19 05:03:00,57.2,55.2,30.12,SW,225,0.0,3.6,93,0.00,,---,0.00,VWS V14.01,2013-09-19 09:03:00,
2013-09-19 05:08:00,57.2,55.2,30.09,SW,225,2.2,3.1,93,0.00,,---,0.00,VWS V14.01,2013-09-19 09:08:00,
2013-09-19 05:13:00,57.4,55.4,30.09,West,270,2.2,2.2,93,0.00,,---,0.00,VWS V14.01,2013-09-19 09:13:00,
2013-09-19 05:18:00,57.4,55.4,30.09,SW,225,0.0,0.0,93,0.00,,---,0.00,VWS V14.01,2013-09-19 09:18:00,
2013-09-19 05:23:00,57.6,55.6,30.12,SW,225,2.7,4.9,93,0.00,,---,0.00,VWS V14.01,2013-09-19 09:23:00,
2013-09-19 05:28:00,57.9,56.2,30.12,SSE,158,2.2,5.4,94,0.00,,---,0.00,VWS V14.01,2013-09-19 09:28:00,
2013-09-19 05:33:00,57.9,56.2,30.12,SSW,202,3.1,4.9,94,0.00,,---,0.00,VWS V14.01,2013-09-19 09:33:00,
2013-09-19 05:38:00,58.3,56.6,30.09,SW,225,0.0,4.0,94,0.00,,---,0.00,VWS V14.01,2013-09-19 09:38:00,
2013-09-19 05:43:00,58.5,56.7,30.09,SW,225,6.3,6.3,94,0.00,,---,0.00,VWS V14.01,2013-09-19 09:43:00,
2013-09-19 05:48:00,58.5,56.7,30.09,SE,135,2.2,4.0,94,0.00,,---,0.00,VWS V14.01,2013-09-19 09:48:00,
2013-09-19 05:53:00,58.6,56.9,30.09,SW,225,2.7,5.4,94,0.00,,---,0.00,VWS V14.01,2013-09-19 09:53:00,
2013-09-19 05:58:00,58.8,57.1,30.09,SW,225,0.0,0.0,94,0.00,,---,0.00,VWS V14.01,2013-09-19 09:58:00,
2013-09-19 06:03:00,58.8,57.1,30.09,South,180,0.0,2.7,94,0.00,,---,0.00,VWS V14.01,2013-09-19 10:03:00,
2013-09-19 06:08:00,59.0,57.0,30.09,SW,225,3.6,3.6,93,0.00,,---,0.00,VWS V14.01,2013-09-19 10:08:00,
2013-09-19 06:13:00,59.2,57.2,30.09,SW,225,3.6,4.0,93,0.00,,---,0.00,VWS V14.01,2013-09-19 10:13:00,
2013-09-19 06:18:00,59.2,57.2,30.09,SE,135,0.0,0.0,93,0.00,,---,0.00,VWS V14.01,2013-09-19 10:18:00,
2013-09-19 06:23:00,59.4,57.3,30.09,South,180,0.0,2.7,93,0.00,,---,0.00,VWS V14.01,2013-09-19 10:23:00,
2013-09-19 06:28:00,59.5,57.5,30.09,SW,225,2.7,2.7,93,0.00,,---,0.00,VWS V14.01,2013-09-19 10:28:00,
2013-09-19 06:33:00,59.4,57.3,30.09,SSW,202,2.7,3.1,93,0.00,,---,0.00,VWS V14.01,2013-09-19 10:33:00,
2013-09-19 06:38:00,59.5,57.5,30.09,South,180,0.0,2.7,93,0.00,,---,0.00,VWS V14.01,2013-09-19 10:38:00,
2013-09-19 06:43:00,59.4,57.3,30.09,SW,225,0.0,0.0,93,0.00,,---,0.00,VWS V14.01,2013-09-19 10:43:00,
2013-09-19 06:48:00,59.4,57.3,30.09,East,90,0.0,0.0,93,0.00,,---,0.00,VWS V14.01,2013-09-19 10:48:00,
2013-09-19 06:53:00,59.2,57.2,30.12,SW,225,2.7,2.7,93,0.00,,---,0.00,VWS V14.01,2013-09-19 10:53:00,
2013-09-19 06:58:00,59.0,57.3,30.12,SW,225,0.0,2.2,94,0.00,,---,0.00,VWS V14.01,2013-09-19 10:58:00,
2013-09-19 07:03:00,58.8,57.1,30.12,SW,225,0.0,2.2,94,0.00,,---,0.00,VWS V14.01,2013-09-19 11:03:00,
2013-09-19 07:08:00,58.6,56.9,30.12,West,270,0.0,0.0,94,0.00,,---,0.00,VWS V14.01,2013-09-19 11:08:00,
2013-09-19 07:13:00,58.6,56.9,30.12,ESE,112,0.0,0.0,94,0.00,,---,0.00,VWS V14.01,2013-09-19 11:13:00,
2013-09-19 07:18:00,58.5,56.7,30.12,SW,225,0.0,0.0,94,0.00,,---,0.00,VWS V14.01,2013-09-19 11:18:00,
2013-09-19 07:23:00,58.5,56.7,30.12,SE,135,2.7,4.9,94,0.00,,---,0.00,VWS V14.01,2013-09-19 11:23:00,
2013-09-19 07:28:00,58.5,56.7,30.12,SW,225,0.0,0.0,94,0.00,,---,0.00,VWS V14.01,2013-09-19 11:28:00,
2013-09-19 07:33:00,58.6,56.9,30.12,ESE,112,2.7,2.7,94,0.00,,---,0.00,VWS V14.01,2013-09-19 11:33:00,
2013-09-19 07:38:00,58.8,57.1,30.12,South,180,2.2,3.6,94,0.00,,---,0.00,VWS V14.01,2013-09-19 11:38:00,
2013-09-19 07:43:00,58.8,57.1,30.12,SE,135,0.0,2.7,94,0.00,,---,0.00,VWS V14.01,2013-09-19 11:43:00,
2013-09-19 07:48:00,59.0,57.3,30.12,South,180,2.2,2.2,94,0.00,,---,0.00,VWS V14.01,2013-09-19 11:48:00,
2013-09-19 07:53:00,59.2,57.5,30.12,SSE,158,3.1,3.6,94,0.00,,---,0.00,VWS V14.01,2013-09-19 11:53:00,
2013-09-19 07:58:00,59.2,57.5,30.12,South,180,3.6,3.6,94,0.00,,---,0.00,VWS V14.01,2013-09-19 11:58:00,
2013-09-19 08:03:00,59.4,57.6,30.12,SE,135,0.0,4.0,94,0.00,,---,0.00,VWS V14.01,2013-09-19 12:03:00,
2013-09-19 08:08:00,59.4,57.6,30.12,SE,135,2.2,4.0,94,0.00,,---,0.00,VWS V14.01,2013-09-19 12:08:00,
2013-09-19 08:13:00,59.7,58.3,30.12,South,180,2.2,3.1,95,0.00,,---,0.00,VWS V14.01,2013-09-19 12:13:00,
2013-09-19 08:18:00,60.1,58.7,30.12,SW,225,2.2,3.1,95,0.00,,---,0.00,VWS V14.01,2013-09-19 12:18:00,
2013-09-19 08:23:00,60.6,59.2,30.12,SW,225,0.0,3.6,95,0.00,,---,0.00,VWS V14.01,2013-09-19 12:23:00,
2013-09-19 08:28:00,61.2,60.0,30.12,SE,135,4.9,6.3,96,0.00,,---,0.00,VWS V14.01,2013-09-19 12:28:00,
2013-09-19 08:33:00,61.7,60.5,30.12,WNW,292,0.0,0.0,96,0.00,,---,0.00,VWS V14.01,2013-09-19 12:33:00,
2013-09-19 08:38:00,62.2,61.1,30.12,SW,225,3.6,4.5,96,0.00,,---,0.00,VWS V14.01,2013-09-19 12:38:00,
2013-09-19 08:43:00,62.6,61.2,30.12,SE,135,0.0,3.1,95,0.00,,---,0.00,VWS V14.01,2013-09-19 12:43:00,
2013-09-19 08:48:00,63.3,61.6,30.12,SW,225,3.1,4.0,94,0.00,,---,0.00,VWS V14.01,2013-09-19 12:48:00,
2013-09-19 08:53:00,63.9,61.8,30.12,SE,135,0.0,0.0,93,0.00,,---,0.00,VWS V14.01,2013-09-19 12:53:00,
2013-09-19 08:58:00,64.4,62.0,30.12,ESE,112,0.0,0.0,92,0.00,,---,0.00,VWS V14.01,2013-09-19 12:58:00,
2013-09-19 09:03:00,64.9,61.9,30.12,West,270,3.1,5.8,90,0.00,,---,0.00,VWS V14.01,2013-09-19 13:03:00,
2013-09-19 09:08:00,65.5,61.8,30.12,South,180,4.0,4.0,88,0.00,,---,0.00,VWS V14.01,2013-09-19 13:08:00,
2013-09-19 09:13:00,65.8,61.2,30.12,SW,225,4.9,6.3,85,0.00,,---,0.00,VWS V14.01,2013-09-19 13:13:00,
2013-09-19 09:18:00,65.8,60.2,30.12,South,180,4.9,6.7,82,0.00,,---,0.00,VWS V14.01,2013-09-19 13:18:00,
2013-09-19 09:23:00,65.8,59.8,30.12,SW,225,3.1,8.1,81,0.00,,---,0.00,VWS V14.01,2013-09-19 13:23:00,
2013-09-19 09:28:00,66.2,59.9,30.12,SSW,202,4.0,4.0,80,0.00,,---,0.00,VWS V14.01,2013-09-19 13:28:00,
2013-09-19 09:33:00,66.6,59.8,30.12,SW,225,2.7,5.8,79,0.00,,---,0.00,VWS V14.01,2013-09-19 13:33:00,
2013-09-19 09:38:00,66.7,59.7,30.12,South,180,8.1,8.1,78,0.00,,---,0.00,VWS V14.01,2013-09-19 13:38:00,
2013-09-19 09:43:00,67.1,59.7,30.12,WSW,248,0.0,2.2,77,0.00,,---,0.00,VWS V14.01,2013-09-19 13:43:00,
2013-09-19 09:48:00,67.5,59.3,30.12,SW,225,4.0,4.9,75,0.00,,---,0.00,VWS V14.01,2013-09-19 13:48:00,
2013-09-19 09:53:00,67.6,58.7,30.12,East,90,2.7,4.9,73,0.00,,---,0.00,VWS V14.01,2013-09-19 13:53:00,
2013-09-19 09:58:00,68.0,58.7,30.12,SW,225,3.1,7.6,72,0.00,,---,0.00,VWS V14.01,2013-09-19 13:58:00,
2013-09-19 10:03:00,68.2,58.8,30.12,SW,225,2.7,8.3,72,0.00,,---,0.00,VWS V14.01,2013-09-19 14:03:00,
2013-09-19 10:08:00,68.2,58.8,30.12,SW,225,2.7,5.8,72,0.00,,---,0.00,VWS V14.01,2013-09-19 14:08:00,
2013-09-19 10:13:00,68.4,58.6,30.12,South,180,5.8,7.2,71,0.00,,---,0.00,VWS V14.01,2013-09-19 14:13:00,
2013-09-19 10:18:00,68.9,59.5,30.12,SE,135,2.2,5.4,72,0.00,,---,0.00,VWS V14.01,2013-09-19 14:18:00,
2013-09-19 10:23:00,69.3,58.7,30.12,South,180,4.5,5.4,69,0.00,,---,0.00,VWS V14.01,2013-09-19 14:23:00,
2013-09-19 10:28:00,70.0,59.3,30.12,South,180,0.0,2.7,69,0.00,,---,0.00,VWS V14.01,2013-09-19 14:28:00,
2013-09-19 10:33:00,70.2,58.7,30.12,South,180,2.7,4.0,67,0.00,,---,0.00,VWS V14.01,2013-09-19 14:33:00,
2013-09-19 10:38:00,70.7,58.8,30.12,SW,225,3.6,3.6,66,0.00,,---,0.00,VWS V14.01,2013-09-19 14:38:00,
2013-09-19 10:43:00,70.7,58.4,30.12,SE,135,0.0,4.9,65,0.00,,---,0.00,VWS V14.01,2013-09-19 14:43:00,
2013-09-19 10:48:00,70.9,58.5,30.12,NE,45,2.7,6.3,65,0.00,,---,0.00,VWS V14.01,2013-09-19 14:48:00,
2013-09-19 10:53:00,71.2,58.5,30.12,SW,225,4.0,8.1,64,0.00,,---,0.00,VWS V14.01,2013-09-19 14:53:00,
2013-09-19 10:58:00,71.4,58.6,30.12,SSW,202,3.6,4.9,64,0.00,,---,0.00,VWS V14.01,2013-09-19 14:58:00,
2013-09-19 11:03:00,71.8,58.5,30.12,WNW,292,0.0,6.3,63,0.00,,---,0.00,VWS V14.01,2013-09-19 15:03:00,
2013-09-19 11:08:00,72.1,59.3,30.12,NW,315,2.2,4.0,64,0.00,,---,0.00,VWS V14.01,2013-09-19 15:08:00,
2013-09-19 11:13:00,72.3,59.0,30.12,South,180,4.0,4.0,63,0.00,,---,0.00,VWS V14.01,2013-09-19 15:13:00,
2013-09-19 11:18:00,71.6,57.5,30.12,SW,225,4.0,5.8,61,0.00,,---,0.00,VWS V14.01,2013-09-19 15:18:00,
2013-09-19 11:23:00,72.1,58.9,30.12,South,180,2.7,4.0,63,0.00,,---,0.00,VWS V14.01,2013-09-19 15:23:00,
2013-09-19 11:28:00,72.3,58.1,30.12,South,180,3.1,4.9,61,0.00,,---,0.00,VWS V14.01,2013-09-19 15:28:00,
2013-09-19 11:33:00,73.2,58.5,30.12,South,180,5.8,5.8,60,0.00,,---,0.00,VWS V14.01,2013-09-19 15:33:00,
2013-09-19 11:38:00,73.6,57.4,30.12,SSW,202,5.4,5.4,57,0.00,,---,0.00,VWS V14.01,2013-09-19 15:38:00,
2013-09-19 11:43:00,73.2,56.6,30.12,SW,225,4.0,5.8,56,0.00,,---,0.00,VWS V14.01,2013-09-19 15:43:00,
2013-09-19 11:48:00,73.4,57.3,30.12,WSW,248,3.6,5.8,57,0.00,,---,0.00,VWS V14.01,2013-09-19 15:48:00,
2013-09-19 11:53:00,73.6,56.9,30.12,SW,225,3.6,3.6,56,0.00,,---,0.00,VWS V14.01,2013-09-19 15:53:00,
2013-09-19 11:58:00,73.4,56.3,30.12,South,180,5.4,5.8,55,0.00,,---,0.00,VWS V14.01,2013-09-19 15:58:00,
2013-09-19 12:03:00,73.2,58.5,30.12,SW,225,5.8,5.8,60,0.00,,---,0.00,VWS V14.01,2013-09-19 16:03:00,
2013-09-19 12:08:00,73.8,58.1,30.12,SSW,202,4.9,7.6,58,0.00,,---,0.00,VWS V14.01,2013-09-19 16:08:00,
2013-09-19 12:13:00,74.1,56.4,30.12,SW,225,8.3,8.3,54,0.00,,---,0.00,VWS V14.01,2013-09-19 16:13:00,
2013-09-19 12:18:00,74.1,57.4,30.12,South,180,8.1,8.1,56,0.00,,---,0.00,VWS V14.01,2013-09-19 16:18:00,
2013-09-19 12:23:00,74.3,56.6,30.12,SW,225,2.7,3.1,54,0.00,,---,0.00,VWS V14.01,2013-09-19 16:23:00,
2013-09-19 12:28:00,75.2,56.4,30.12,SE,135,3.6,3.6,52,0.00,,---,0.00,VWS V14.01,2013-09-19 16:28:00,
2013-09-19 12:33:00,75.2,55.8,30.12,East,90,3.1,3.6,51,0.00,,---,0.00,VWS V14.01,2013-09-19 16:33:00,
2013-09-19 12:38:00,75.6,56.2,30.12,SW,225,7.6,7.6,51,0.00,,---,0.00,VWS V14.01,2013-09-19 16:38:00,
2013-09-19 12:43:00,74.7,55.9,30.12,SW,225,3.6,7.6,52,0.00,,---,0.00,VWS V14.01,2013-09-19 16:43:00,
2013-09-19 12:48:00,75.2,57.4,30.12,SSW,202,4.0,7.2,54,0.00,,---,0.00,VWS V14.01,2013-09-19 16:48:00,
2013-09-19 12:53:00,75.9,57.0,30.12,South,180,2.7,5.4,52,0.00,,---,0.00,VWS V14.01,2013-09-19 16:53:00,
2013-09-19 12:58:00,76.3,55.7,30.12,SW,225,4.0,5.4,49,0.00,,---,0.00,VWS V14.01,2013-09-19 16:58:00,
2013-09-19 13:03:00,77.2,56.0,30.12,SW,225,3.6,3.6,48,0.00,,---,0.00,VWS V14.01,2013-09-19 17:03:00,
2013-09-19 13:08:00,77.0,55.2,30.12,NE,45,2.7,4.9,47,0.00,,---,0.00,VWS V14.01,2013-09-19 17:08:00,
2013-09-19 13:13:00,77.7,56.5,30.12,SSW,202,4.9,7.2,48,0.00,,---,0.00,VWS V14.01,2013-09-19 17:13:00,
2013-09-19 13:18:00,77.5,55.7,30.12,WSW,248,3.6,5.4,47,0.00,,---,0.00,VWS V14.01,2013-09-19 17:18:00,
2013-09-19 13:23:00,78.3,55.8,30.12,South,180,2.2,5.8,46,0.00,,---,0.00,VWS V14.01,2013-09-19 17:23:00,
2013-09-19 13:28:00,77.7,52.8,30.12,South,180,3.1,3.1,42,0.00,,---,0.00,VWS V14.01,2013-09-19 17:28:00,
2013-09-19 13:33:00,78.1,53.2,30.12,SW,225,0.0,0.0,42,0.00,,---,0.00,VWS V14.01,2013-09-19 17:33:00,
2013-09-19 13:38:00,78.8,53.1,30.12,ESE,112,3.1,3.6,41,0.00,,---,0.00,VWS V14.01,2013-09-19 17:38:00,
2013-09-19 13:43:00,78.1,53.2,30.12,SSW,202,3.6,3.6,42,0.00,,---,0.00,VWS V14.01,2013-09-19 17:43:00,
2013-09-19 13:48:00,77.5,52.0,30.12,South,180,0.0,4.5,41,0.00,,---,0.00,VWS V14.01,2013-09-19 17:48:00,
2013-09-19 13:53:00,78.6,53.0,30.12,South,180,2.7,3.6,41,0.00,,---,0.00,VWS V14.01,2013-09-19 17:53:00,
2013-09-19 13:58:00,78.6,52.3,30.12,SW,225,0.0,4.0,40,0.00,,---,0.00,VWS V14.01,2013-09-19 17:58:00,
2013-09-19 14:03:00,79.0,51.2,30.12,WNW,292,3.6,5.4,38,0.00,,---,0.00,VWS V14.01,2013-09-19 18:03:00,
2013-09-19 14:08:00,78.6,50.9,30.12,SSW,202,4.0,4.0,38,0.00,,---,0.00,VWS V14.01,2013-09-19 18:08:00,
2013-09-19 14:13:00,79.2,51.4,30.12,SW,225,3.1,3.1,38,0.00,,---,0.00,VWS V14.01,2013-09-19 18:13:00,
2013-09-19 14:18:00,78.3,49.1,30.12,South,180,4.0,4.0,36,0.00,,---,0.00,VWS V14.01,2013-09-19 18:18:00,
2013-09-19 14:23:00,79.0,48.2,30.12,East,90,2.2,3.1,34,0.00,,---,0.00,VWS V14.01,2013-09-19 18:23:00,
2013-09-19 14:28:00,79.5,48.7,30.12,ESE,112,2.2,4.9,34,0.00,,---,0.00,VWS V14.01,2013-09-19 18:28:00,
2013-09-19 14:33:00,79.9,48.2,30.12,SW,225,2.2,2.2,33,0.00,,---,0.00,VWS V14.01,2013-09-19 18:33:00,
2013-09-19 14:38:00,79.2,47.6,30.12,SW,225,3.1,4.9,33,0.00,,---,0.00,VWS V14.01,2013-09-19 18:38:00,
2013-09-19 14:43:00,78.8,47.3,30.12,SW,225,4.0,4.0,33,0.00,,---,0.00,VWS V14.01,2013-09-19 18:43:00,
2013-09-19 14:48:00,79.5,47.1,30.12,SW,225,2.7,3.6,32,0.00,,---,0.00,VWS V14.01,2013-09-19 18:48:00,
2013-09-19 14:53:00,80.1,46.7,30.12,SE,135,3.1,4.9,31,0.00,,---,0.00,VWS V14.01,2013-09-19 18:53:00,
2013-09-19 14:58:00,79.7,46.4,30.12,South,180,3.1,3.1,31,0.00,,---,0.00,VWS V14.01,2013-09-19 18:58:00,
2013-09-19 15:03:00,80.1,46.7,30.12,SW,225,3.1,6.3,31,0.00,,---,0.00,VWS V14.01,2013-09-19 19:03:00,
2013-09-19 15:08:00,80.6,47.2,30.09,SW,225,3.6,4.0,31,0.00,,---,0.00,VWS V14.01,2013-09-19 19:08:00,
2013-09-19 15:13:00,80.1,45.9,30.09,SE,135,6.3,6.3,30,0.00,,---,0.00,VWS V14.01,2013-09-19 19:13:00,
2013-09-19 15:18:00,79.5,46.3,30.09,South,180,3.6,3.6,31,0.00,,---,0.00,VWS V14.01,2013-09-19 19:18:00,
2013-09-19 15:23:00,80.1,46.7,30.12,SW,225,2.2,4.0,31,0.00,,---,0.00,VWS V14.01,2013-09-19 19:23:00,
2013-09-19 15:28:00,80.4,46.2,30.12,South,180,3.1,3.1,30,0.00,,---,0.00,VWS V14.01,2013-09-19 19:28:00,
2013-09-19 15:33:00,79.3,45.2,30.12,South,180,5.4,5.8,30,0.00,,---,0.00,VWS V14.01,2013-09-19 19:33:00,
2013-09-19 15:38:00,79.0,44.9,30.09,SE,135,3.6,4.0,30,0.00,,---,0.00,VWS V14.01,2013-09-19 19:38:00,
2013-09-19 15:43:00,79.0,45.8,30.09,South,180,3.1,3.1,31,0.00,,---,0.00,VWS V14.01,2013-09-19 19:43:00,
2013-09-19 15:48:00,79.0,44.9,30.09,SW,225,8.1,8.1,30,0.00,,---,0.00,VWS V14.01,2013-09-19 19:48:00,
2013-09-19 15:53:00,78.8,44.8,30.12,South,180,4.9,4.9,30,0.00,,---,0.00,VWS V14.01,2013-09-19 19:53:00,
2013-09-19 15:58:00,78.8,45.6,30.12,SSW,202,3.1,3.6,31,0.00,,---,0.00,VWS V14.01,2013-09-19 19:58:00,
2013-09-19 16:03:00,79.2,45.1,30.12,South,180,3.1,5.8,30,0.00,,---,0.21,VWS V14.01,2013-09-19 20:03:00,
2013-09-19 16:08:00,79.0,44.9,30.09,SE,135,2.7,3.1,30,0.00,,---,0.00,VWS V14.01,2013-09-19 20:08:00,
2013-09-19 16:13:00,78.8,44.8,30.09,South,180,4.9,5.8,30,0.00,,---,0.00,VWS V14.01,2013-09-19 20:13:00,
2013-09-19 16:18:00,77.9,44.9,30.09,North,0,0.0,3.6,31,0.00,,---,0.00,VWS V14.01,2013-09-19 20:18:00,
2013-09-19 16:23:00,77.7,45.5,30.12,SW,225,3.6,3.6,32,0.00,,---,0.00,VWS V14.01,2013-09-19 20:23:00,
2013-09-19 16:28:00,77.0,44.9,30.12,South,180,5.4,8.1,32,0.00,,---,0.00,VWS V14.01,2013-09-19 20:28:00,
2013-09-19 16:33:00,76.5,45.2,30.12,SW,225,4.0,4.0,33,0.00,,---,0.00,VWS V14.01,2013-09-19 20:33:00,
2013-09-19 16:38:00,76.1,45.7,30.12,SW,225,2.7,5.8,34,0.00,,---,0.00,VWS V14.01,2013-09-19 20:38:00,
2013-09-19 16:43:00,75.9,44.8,30.12,East,90,0.0,0.0,33,0.00,,---,0.00,VWS V14.01,2013-09-19 20:43:00,
2013-09-19 16:48:00,75.7,45.4,30.12,SW,225,3.1,4.0,34,0.00,,---,0.00,VWS V14.01,2013-09-19 20:48:00,
2013-09-19 16:53:00,75.7,46.2,30.09,South,180,2.7,4.9,35,0.00,,---,0.00,VWS V14.01,2013-09-19 20:53:00,
2013-09-19 16:58:00,75.7,46.9,30.09,SSE,158,2.2,2.7,36,0.00,,---,0.00,VWS V14.01,2013-09-19 20:58:00,
2013-09-19 17:03:00,75.6,46.0,30.09,SE,135,0.0,0.0,35,0.00,,---,0.00,VWS V14.01,2013-09-19 21:03:00,
2013-09-19 17:08:00,75.6,46.8,30.12,SW,225,0.0,0.0,36,0.00,,---,0.00,VWS V14.01,2013-09-19 21:08:00,
2013-09-19 17:13:00,75.6,46.0,30.12,SW,225,0.0,3.6,35,0.00,,---,0.00,VWS V14.01,2013-09-19 21:13:00,
2013-09-19 17:18:00,75.6,46.0,30.12,SW,225,2.2,3.1,35,0.00,,---,0.00,VWS V14.01,2013-09-19 21:18:00,
2013-09-19 17:23:00,75.2,45.7,30.12,South,180,3.1,4.9,35,0.00,,---,0.00,VWS V14.01,2013-09-19 21:23:00,
2013-09-19 17:28:00,74.8,46.1,30.12,SSW,202,3.6,3.6,36,0.00,,---,0.00,VWS V14.01,2013-09-19 21:28:00,
2013-09-19 17:33:00,74.7,46.0,30.12,SW,225,3.1,4.9,36,0.00,,---,0.00,VWS V14.01,2013-09-19 21:33:00,
2013-09-19 17:38:00,74.5,46.5,30.12,SW,225,0.0,0.0,37,0.00,,---,0.00,VWS V14.01,2013-09-19 21:38:00,
2013-09-19 17:43:00,74.3,47.1,30.12,West,270,0.0,0.0,38,0.00,,---,0.00,VWS V14.01,2013-09-19 21:43:00,
2013-09-19 17:48:00,74.1,47.6,30.12,SW,225,3.1,4.9,39,0.00,,---,0.00,VWS V14.01,2013-09-19 21:48:00,
2013-09-19 17:53:00,73.9,49.4,30.12,SW,225,0.0,0.0,42,0.00,,---,0.00,VWS V14.01,2013-09-19 21:53:00,
2013-09-19 17:58:00,73.8,49.9,30.12,SSW,202,2.7,2.7,43,0.00,,---,0.00,VWS V14.01,2013-09-19 21:58:00,
2013-09-19 18:03:00,73.4,51.4,30.12,SSW,202,2.2,3.1,46,0.00,,---,0.00,VWS V14.01,2013-09-19 22:03:00,
2013-09-19 18:08:00,73.2,52.4,30.12,South,180,0.0,0.0,48,0.00,,---,0.00,VWS V14.01,2013-09-19 22:08:00,
2013-09-19 18:14:00,73.0,53.9,30.12,SW,225,0.0,0.0,51,0.00,,---,0.00,VWS V14.01,2013-09-19 22:14:00,
2013-09-19 18:19:00,72.5,57.4,30.12,West,270,0.0,0.0,59,0.00,,---,0.00,VWS V14.01,2013-09-19 22:19:00,
2013-09-19 18:24:00,71.8,59.0,30.12,West,270,0.0,0.0,64,0.00,,---,0.00,VWS V14.01,2013-09-19 22:24:00,
2013-09-19 18:29:00,71.1,59.6,30.12,West,270,0.0,0.0,67,0.00,,---,0.00,VWS V14.01,2013-09-19 22:29:00,
2013-09-19 18:34:00,70.2,59.9,30.12,West,270,0.0,0.0,70,0.00,,---,0.00,VWS V14.01,2013-09-19 22:34:00,
2013-09-19 18:38:00,69.6,61.0,30.12,West,270,0.0,0.0,74,0.00,,---,0.00,VWS V14.01,2013-09-19 22:38:00,
2013-09-19 18:43:00,69.3,61.4,30.12,West,270,0.0,0.0,76,0.00,,---,0.00,VWS V14.01,2013-09-19 22:43:00,
2013-09-19 18:48:00,68.9,61.0,30.12,West,270,0.0,0.0,76,0.00,,---,0.00,VWS V14.01,2013-09-19 22:48:00,
2013-09-19 18:53:00,68.9,60.7,30.12,South,180,0.0,0.0,75,0.00,,---,0.00,VWS V14.01,2013-09-19 22:53:00,
2013-09-19 18:58:00,68.7,60.5,30.12,SSW,202,0.0,0.0,75,0.00,,---,0.00,VWS V14.01,2013-09-19 22:58:00,
2013-09-19 19:03:00,68.5,59.9,30.12,SW,225,0.0,0.0,74,0.00,,---,0.00,VWS V14.01,2013-09-19 23:03:00,
2013-09-19 19:08:00,68.4,59.8,30.12,SW,225,0.0,0.0,74,0.00,,---,0.00,VWS V14.01,2013-09-19 23:08:00,
2013-09-19 19:13:00,68.2,60.0,30.12,SW,225,0.0,0.0,75,0.00,,---,0.00,VWS V14.01,2013-09-19 23:13:00,
2013-09-19 19:18:00,67.8,60.0,30.12,SW,225,0.0,0.0,76,0.00,,---,0.00,VWS V14.01,2013-09-19 23:18:00,
2013-09-19 19:24:00,67.5,60.4,30.09,SW,225,0.0,0.0,78,0.00,,---,0.00,VWS V14.01,2013-09-19 23:24:00,
2013-09-19 19:29:00,67.1,60.4,30.09,ESE,112,0.0,0.0,79,0.00,,---,0.00,VWS V14.01,2013-09-19 23:29:00,
2013-09-19 19:34:00,66.7,60.4,30.09,SE,135,0.0,0.0,80,0.00,,---,0.00,VWS V14.01,2013-09-19 23:34:00,
2013-09-19 19:39:00,66.7,61.1,30.09,ESE,112,0.0,0.0,82,0.00,,---,0.00,VWS V14.01,2013-09-19 23:39:00,
2013-09-19 19:44:00,66.6,61.6,30.09,SE,135,0.0,0.0,84,0.00,,---,0.00,VWS V14.01,2013-09-19 23:44:00,
2013-09-19 19:49:00,66.4,61.7,30.09,SE,135,0.0,0.0,85,0.00,,---,0.00,VWS V14.01,2013-09-19 23:49:00,
2013-09-19 19:54:00,66.2,61.9,30.09,East,90,0.0,0.0,86,0.00,,---,0.00,VWS V14.01,2013-09-19 23:54:00,
2013-09-19 19:59:00,66.0,62.4,30.09,SE,135,0.0,2.7,88,0.00,,---,0.00,VWS V14.01,2013-09-19 23:59:00,
2013-09-19 20:04:00,65.8,62.2,30.09,SE,135,0.0,0.0,88,0.00,,---,0.00,VWS V14.01,2013-09-20 00:04:00,
2013-09-19 20:09:00,65.8,62.5,30.09,East,90,0.0,0.0,89,0.00,,---,0.00,VWS V14.01,2013-09-20 00:09:00,
2013-09-19 20:14:00,65.7,62.3,30.09,East,90,0.0,0.0,89,0.00,,---,0.00,VWS V14.01,2013-09-20 00:14:00,
2013-09-19 20:19:00,65.7,62.7,30.09,East,90,0.0,0.0,90,0.00,,---,0.00,VWS V14.01,2013-09-20 00:19:00,
2013-09-19 20:24:00,65.5,62.5,30.09,East,90,0.0,0.0,90,0.00,,---,0.00,VWS V14.01,2013-09-20 00:24:00,
2013-09-19 20:29:00,65.5,62.5,30.09,SE,135,0.0,0.0,90,0.00,,---,0.00,VWS V14.01,2013-09-20 00:29:00,
2013-09-19 20:34:00,65.3,62.6,30.09,East,90,0.0,0.0,91,0.00,,---,0.00,VWS V14.01,2013-09-20 00:34:00,
2013-09-19 20:39:00,65.1,62.4,30.09,SW,225,0.0,0.0,91,0.00,,---,0.00,VWS V14.01,2013-09-20 00:39:00,
2013-09-19 20:43:00,64.9,62.2,30.09,SE,135,0.0,2.7,91,0.00,,---,0.00,VWS V14.01,2013-09-20 00:43:00,
2013-09-19 20:48:00,64.8,62.1,30.09,ESE,112,0.0,0.0,91,0.00,,---,0.00,VWS V14.01,2013-09-20 00:48:00,
2013-09-19 20:53:00,64.8,62.1,30.09,SE,135,0.0,3.6,91,0.00,,---,0.00,VWS V14.01,2013-09-20 00:53:00,
2013-09-19 20:58:00,64.8,62.4,30.09,SE,135,0.0,0.0,92,0.00,,---,0.00,VWS V14.01,2013-09-20 00:58:00,
2013-09-19 21:03:00,64.8,62.4,30.09,East,90,0.0,0.0,92,0.00,,---,0.00,VWS V14.01,2013-09-20 01:03:00,
2013-09-19 21:08:00,64.8,62.4,30.06,SE,135,0.0,2.7,92,0.00,,---,0.00,VWS V14.01,2013-09-20 01:08:00,
2013-09-19 21:13:00,64.8,62.4,30.06,SW,225,3.6,3.6,92,0.00,,---,0.00,VWS V14.01,2013-09-20 01:13:00,
2013-09-19 21:18:00,64.8,62.4,30.06,ENE,68,2.7,2.7,92,0.00,,---,0.00,VWS V14.01,2013-09-20 01:18:00,
2013-09-19 21:23:00,64.8,62.4,30.06,South,180,2.2,4.0,92,0.00,,---,0.00,VWS V14.01,2013-09-20 01:23:00,
2013-09-19 21:29:00,64.9,62.2,30.06,SW,225,0.0,2.7,91,0.00,,---,0.00,VWS V14.01,2013-09-20 01:29:00,
2013-09-19 21:33:00,65.1,62.4,30.06,East,90,2.7,3.6,91,0.00,,---,0.00,VWS V14.01,2013-09-20 01:33:00,
2013-09-19 21:39:00,65.1,62.4,30.06,SE,135,4.0,4.0,91,0.00,,---,0.00,VWS V14.01,2013-09-20 01:39:00,
2013-09-19 21:44:00,64.9,61.9,30.06,SW,225,0.0,0.0,90,0.00,,---,0.00,VWS V14.01,2013-09-20 01:44:00,
2013-09-19 21:49:00,64.8,61.8,30.06,SW,225,0.0,0.0,90,0.00,,---,0.00,VWS V14.01,2013-09-20 01:49:00,
2013-09-19 21:54:00,64.6,61.6,30.06,SSE,158,0.0,0.0,90,0.00,,---,0.00,VWS V14.01,2013-09-20 01:54:00,
2013-09-19 21:59:00,64.6,61.6,30.06,SE,135,0.0,2.2,90,0.00,,---,0.00,VWS V14.01,2013-09-20 01:59:00,
2013-09-19 22:04:00,64.6,61.6,30.06,SE,135,3.1,3.1,90,0.00,,---,0.00,VWS V14.01,2013-09-20 02:04:00,
2013-09-19 22:09:00,64.4,61.4,30.06,SE,135,0.0,0.0,90,0.00,,---,0.00,VWS V14.01,2013-09-20 02:09:00,
2013-09-19 22:14:00,64.4,61.4,30.06,South,180,0.0,2.7,90,0.00,,---,0.00,VWS V14.01,2013-09-20 02:14:00,
2013-09-19 22:19:00,64.0,61.4,30.06,ESE,112,3.6,3.6,91,0.00,,---,0.00,VWS V14.01,2013-09-20 02:19:00,
2013-09-19 22:24:00,64.0,61.4,30.06,East,90,0.0,0.0,91,0.00,,---,0.00,VWS V14.01,2013-09-20 02:24:00,
2013-09-19 22:28:00,64.2,61.5,30.06,East,90,0.0,0.0,91,0.00,,---,0.00,VWS V14.01,2013-09-20 02:28:00,
2013-09-19 22:34:00,64.2,61.5,30.06,SE,135,3.1,3.6,91,0.00,,---,0.00,VWS V14.01,2013-09-20 02:34:00,
2013-09-19 22:39:00,64.2,61.5,30.06,SW,225,4.0,4.0,91,0.00,,---,0.00,VWS V14.01,2013-09-20 02:39:00,
2013-09-19 22:44:00,64.4,61.7,30.06,South,180,0.0,0.0,91,0.00,,---,0.00,VWS V14.01,2013-09-20 02:44:00,
2013-09-19 22:48:00,64.2,61.5,30.06,SW,225,0.0,3.1,91,0.00,,---,0.00,VWS V14.01,2013-09-20 02:48:00,
2013-09-19 22:54:00,64.2,61.8,30.06,SW,225,0.0,3.6,92,0.00,,---,0.00,VWS V14.01,2013-09-20 02:54:00,
2013-09-19 22:58:00,64.2,61.8,30.06,SW,225,0.0,2.7,92,0.00,,---,0.00,VWS V14.01,2013-09-20 02:58:00,
2013-09-19 23:04:00,64.2,61.8,30.06,SW,225,4.0,4.0,92,0.00,,---,0.00,VWS V14.01,2013-09-20 03:04:00,
2013-09-19 23:08:00,64.2,61.8,30.06,SW,225,2.7,3.1,92,0.00,,---,0.00,VWS V14.01,2013-09-20 03:08:00,
2013-09-19 23:13:00,64.2,61.8,30.06,SSW,202,0.0,0.0,92,0.00,,---,0.00,VWS V14.01,2013-09-20 03:13:00,
2013-09-19 23:18:00,64.0,61.7,30.06,SW,225,0.0,3.6,92,0.00,,---,0.00,VWS V14.01,2013-09-20 03:18:00,
2013-09-19 23:23:00,63.9,61.5,30.06,SE,135,0.0,3.1,92,0.00,,---,0.00,VWS V14.01,2013-09-20 03:23:00,
2013-09-19 23:29:00,63.9,61.5,30.06,East,90,2.2,4.0,92,0.00,,---,0.00,VWS V14.01,2013-09-20 03:29:00,
2013-09-19 23:34:00,63.9,61.5,30.06,South,180,0.0,3.6,92,0.00,,---,0.00,VWS V14.01,2013-09-20 03:34:00,
2013-09-19 23:39:00,63.9,61.5,30.06,WSW,248,0.0,0.0,92,0.00,,---,0.00,VWS V14.01,2013-09-20 03:39:00,
2013-09-19 23:44:00,63.9,61.5,30.06,South,180,3.1,4.5,92,0.00,,---,0.00,VWS V14.01,2013-09-20 03:44:00,
2013-09-19 23:49:00,63.9,61.5,30.06,SE,135,0.0,2.7,92,0.00,,---,0.00,VWS V14.01,2013-09-20 03:49:00,
2013-09-19 23:54:00,63.9,61.5,30.06,South,180,0.0,0.0,92,0.00,,---,0.00,VWS V14.01,2013-09-20 03:54:00,
2013-09-19 23:59:00,63.9,61.8,30.06,SE,135,0.0,0.0,93,0.00,,---,0.00,VWS V14.01,2013-09-20 03:59:00,